CST,Max TemperatureF,Mean TemperatureF,Min TemperatureF,Max Dew PointF,MeanDew PointF,Min DewpointF,Max Humidity, Mean Humidity, Min Humidity, Max Sea Level PressureIn, Mean Sea Level PressureIn, Min Sea Level PressureIn, Max VisibilityMiles, Mean VisibilityMiles, Min VisibilityMiles, Max Wind SpeedMPH, Mean Wind SpeedMPH, Max Gust SpeedMPH,PrecipitationIn, CloudCover, Events, WindDirDegrees
2012-12-1,52,37,21,33,28,20,100,72,44,29.92,29.79,29.65,10,6,0,22,8,30,0.00,1,Fog,340
2012-12-2,56,37,18,35,24,16,100,72,43,29.92,29.78,29.44,10,5,0,29,13,39,0.00,0,Fog,158
2012-12-3,55,39,22,38,27,17,69,49,28,30.01,29.71,29.39,10,10,10,30,15,38,T,1,Rain,271
2012-12-4,32,24,16,16,14,10,84,69,53,30.35,30.27,30.04,10,10,9,12,6,15,0.00,0,,43
2012-12-5,44,31,17,25,19,11,81,61,41,30.29,29.92,29.68,10,10,10,22,7,29,0.00,0,,152
2012-12-6,45,32,18,27,23,16,84,65,45,30.05,29.96,29.74,10,10,10,26,11,32,0.00,1,,297
2012-12-7,31,27,22,29,26,18,92,84,75,30.06,30.01,29.96,10,3,0,10,4,13,0.24,8,Fog-Snow,117
2012-12-8,29,26,22,27,24,19,92,88,84,30.03,29.88,29.78,10,4,0,22,11,26,0.33,8,Fog-Snow,132
2012-12-9,26,11,-4,20,3,-7,84,78,72,30.35,30.15,29.91,10,3,0,38,22,48,0.04,6,Fog-Snow,358
2012-12-10,12,-2,-17,9,-4,-20,91,81,70,30.25,29.93,29.76,10,8,2,18,8,22,0.01,5,Snow,188
2012-12-11,24,15,6,18,12,3,92,83,73,29.93,29.86,29.77,10,10,7,14,5,17,T,5,Snow,125
2012-12-12,30,22,14,21,17,10,84,79,73,29.92,29.80,29.73,10,10,7,22,8,26,0.00,2,,146
2012-12-13,20,14,7,14,10,3,88,81,73,30.17,30.08,29.91,10,10,7,20,8,24,0.00,6,,46
2012-12-14,27,19,10,21,16,6,92,87,81,30.08,29.90,29.69,8,4,0,13,6,16,0.00,1,Fog,120
2012-12-15,28,20,11,20,17,9,88,78,68,29.82,29.71,29.63,10,7,3,18,10,22,0.01,5,Rain,352
2012-12-16,25,22,18,22,18,16,92,86,80,29.91,29.84,29.77,10,9,2,17,8,21,T,8,Snow,29
2012-12-17,25,22,19,23,19,16,96,89,81,29.83,29.70,29.56,10,7,2,13,5,15,0.01,8,Snow,134
2012-12-18,30,20,10,25,19,7,92,84,76,29.84,29.66,29.55,10,5,0,13,5,14,0.02,6,Fog-Snow,199
2012-12-19,20,11,2,10,6,1,88,75,62,30.17,30.03,29.84,10,10,10,18,8,24,0.00,1,,263
2012-12-20,19,6,-8,9,-1,-11,91,79,67,30.32,30.21,30.12,10,6,0,17,5,21,0.00,2,Fog,326
2012-12-21,13,3,-7,6,-5,-11,91,82,73,30.35,30.24,30.11,10,3,0,7,1,8,0.00,5,Fog,95
2012-12-22,16,11,5,9,5,1,88,81,73,30.24,30.15,30.06,10,10,8,23,9,31,0.00,3,,9
2012-12-23,10,7,4,3,1,-1,87,80,73,30.22,30.17,30.05,10,9,3,16,11,21,0.01,5,Snow,31
2012-12-24,5,-2,-9,0,-8,-14,83,74,65,30.51,30.33,30.09,10,9,2,15,9,20,0.01,2,Snow,2
2012-12-25,7,-4,-16,1,-8,-20,87,78,68,30.66,30.57,30.36,10,9,2,9,5,10,0.01,3,Snow,196
2012-12-26,10,5,0,3,1,-2,88,77,66,30.43,30.31,30.18,10,7,2,9,5,12,0.02,6,Snow,133
2012-12-27,17,11,5,12,9,0,88,81,73,30.23,30.13,30.06,10,4,1,9,6,12,0.04,8,Snow,93
2012-12-28,14,3,-9,10,3,-13,91,84,76,30.18,30.12,30.05,8,4,0,10,5,12,T,7,Fog-Snow,304
2012-12-29,13,-1,-15,4,-7,-19,92,80,67,30.20,30.12,30.05,10,6,0,9,4,10,0.00,2,Fog,189
2012-12-30,22,10,-2,16,6,-3,87,74,61,30.17,30.07,29.94,10,10,9,22,7,28,0.00,2,,263
2012-12-31,21,10,-1,11,3,-4,87,77,67,30.33,30.26,30.17,10,9,2,20,6,24,T,6,Snow,34